www.pogodaiklimat.ru

Погода и климат >> Архив погоды >> Россия >> Кемеровская область >> Крапивино


ПОГОДА в Крапивино

  • Прогноз погоды в Крапивино
  • Монитор погоды в Крапивино

АРХИВ ПОГОДЫ в Крапивино

Время (UTC), дата Ветер
(напр.,м/с)
 
Видим.   Явления Облачность Т
(С)
Тd
(С)
f
(%)
Тe
(С)
Тes
(С)
Комфортность P
(гПа)
Po
(гПа)
Тmin
(С)
Tmax
(С)
R
(мм)
R24
(мм)
S
(см)
21 9.06 ЮВ 1 50 км 6/0
[Ac lent Ci fib]
+9.8 +8.2 90 +9 +9 1007.4 989.3
00 10.06 В 2 50 км 3/0
[Ci fib]
+12.6 +10.0 84 +12 +14 1007.2 989.1 +9.6
03 10.06 Ю 2 50 км 8/5 600 м
[Cb cap Ci fib]
+18.3 +12.1 67 +19 +22 1008.3 990.7
06 10.06 З 3 50 км {ливн. осадки} 8/5 600 м
[Cb cap Ci fib]
+21.5 +10.6 50 +23 +27 комфорт 1008.1 990.7
09 10.06 З 4 50 км 8/5 600 м
[Cb cap Ci fib]
+22.9 +8.6 40 +24 +26 комфорт 1008.0 990.7
12 10.06 З 2 50 км 8/5 600 м
[Cb cap Ci fib]
+21.9 +9.2 44 +23 +24 комфорт 1007.3 989.8 +23.2 0.0
15 10.06 ЮЗ 1 50 км 3/3 1000 м
[Sc Ci fib]
+17.2 +9.9 62 +18 +18 1009.7 992.0
18 10.06 Ю 2 50 км 9/3 600 м
[Sc Ac lent Ci fib]
+11.9 +9.5 85 +11 +11 1011.3 993.3
21 10.06 ЮВ 1 50 км 9/6 600 м
[Cb cap Ac trans Ci fib]
+10.3 +8.2 87 +10 +10 1012.9 994.7
00 11.06 Ю 1 50 км 9/6 600 м
[Cb cap Ac trans]
+14.0 +10.5 79 +14 +15 1012.6 994.5 +10.3
03 11.06 ЮЗ 2 50 км 10/6 600 м
[Cb cap Ac As]
+18.2 +12.0 67 +19 +19 1013.7 996.0
06 11.06 ЮЗ 1 50 км {ливн. осадки} 10/5 600 м
[Cb cap Ac As]
+18.7 +12.7 68 +21 +21 комфорт 1015.0 997.3
09 11.06 З 2 50 км 10/6 600 м
[Cb cap Ac As]
+20.4 +10.5 53 +23 +23 комфорт 1014.9 997.3
12 11.06 ЮЗ 2 50 км 8/4 1000 м
[Sc Ac lent]
+21.2 +11.1 52 +23 +24 комфорт 1013.9 996.2 +21.6 0.0
15 11.06 ЮВ 1 50 км 9/5 1000 м
[Sc Ci fib]
+17.9 +12.6 71 +19 +19 1015.0 997.3
18 11.06 В 1 50 км 6/0
[Ac lent Ci fib]
+14.1 +11.6 85 +14 +14 1015.3 997.3
21 11.06 Ю 1 50 км 9/3 1000 м
[Sc Ac trans Ci fib]
+14.4 +10.4 77 +15 +15 1013.9 996.0
00 12.06 Ю 2 50 км 3/0
[Ac lent Ci fib]
+15.9 +10.3 69 +16 +18 1012.7 994.7 +12.3
03 12.06 Ю 3 50 км 3/0
[Ac lent Ci fib]
+22.2 +11.3 50 +24 +31 комфорт 1012.1 994.7
06 12.06 ЮЗ 4 50 км 8/8 1000 м
[Cu med, cong]
+24.1 +7.7 35 +24 +28 комфорт 1010.6 993.3
09 12.06 Ю 4
{10}
50 км 6/6 1000 м
[Cu med, cong]
+26.2 +7.7 31 +26 +29 жарко 1007.8 990.7
12 12.06 ЮЗ 2 50 км 8/8 1000 м
[Cu med, cong]
+25.0 +7.6 33 +25 +26 комфорт 1006.0 988.7 +26.7
15 12.06 Ю 1 50 км 1/1 1000 м
[Sc diur, vesp]
+20.1 +9.9 52 +23 +23 комфорт 1006.8 989.3
18 12.06 Ю 2 50 км 7 баллов +17.4 +9.8 61 +18 +18 1006.9 989.3
21 12.06 Ю 1 50 км 3/1 1000 м
[Sc Ac lent]
+15.6 +9.3 66 +16 +16 1005.7 988.0
00 13.06 Ю 4 50 км 3/1 1000 м
[Cu hum Cc]
+17.9 +10.4 61 +18 +19 1004.3 986.6 +14.9
03 13.06 Ю 4 50 км 8/3 1000 м
[Cu hum Ac lent Ci fib]
+22.4 +11.5 50 +25 +27 комфорт 1004.0 986.7
06 13.06 Ю 5-10
{10}
50 км 8/3 1000 м
[Cu med, cong Ac lent Ci fib]
+26.5 +11.0 38 +27 +30 жарко 1003.7 986.7
09 13.06 ЮЗ 5-10
{12}
50 км 6/6 1000 м
[Cu med, cong]
+28.1 +9.4 31 +28 +31 жарко 1000.9 984.0
12 13.06 ЮЗ 2
{11}
50 км 9/4 600 м
[Cb cap Ac trans]
+25.5 +11.0 40 +27 +27 жарко 1000.6 983.4 +28.2
15 13.06 Ю 1 50 км 10/3 1000 м
[Sc Ac lent Ci fib]
+21.1 +12.0 56 +23 +23 комфорт 1001.3 984.0
18 13.06 ЮВ 1
{10}
50 км в посл. час ливневой дождь 8/3 600 м
[Cb cap Ac trans]
+16.1 +13.8 86 +17 +17 1001.4 983.7
21 13.06 ЮВ 2 50 км {ливн. осадки} 8/5 600 м
[Cb cap Ci fib]
+16.0 +13.7 86 +16 +16 1000.3 982.7
00 14.06 З 1 50 км {ливн. осадки} 9/5 600 м
[Cb cap Ac trans]
+17.8 +13.4 75 +19 +20 1000.8 983.2 +15.6 2
03 14.06 СЗ 2 50 км 10/6 600 м
[Cb cap Ac As]
+18.0 +13.7 76 +19 +19 1002.8 985.3
06 14.06 З 3 50 км 9/6 600 м
[Cb cap Ac trans Ci fib]
+21.2 +13.1 60 +24 +25 комфорт 1004.0 986.7
09 14.06 СЗ 3 50 км 9 баллов +20.8 +12.0 57 +23 +24 комфорт 1004.1 986.7
12 14.06 СЗ 1 50 км 9/6 600 м
[Cb cap Ac trans]
+20.3 +11.3 56 +23 +24 комфорт 1004.1 986.6 +22.0
15 14.06 штиль 0 50 км 9 баллов +18.1 +11.9 67 +18 +18 1005.5 988.0
18 14.06 штиль 0 50 км 9/6 600 м
[Cb cap Ac trans]
+16.3 +12.8 80 +16 +16 1004.3 986.7
21 14.06 ЮВ 2 50 км 10 баллов +15.0 +12.9 87 +15 +15 1004.4 986.7
00 15.06 З 1 50 км {ливн. осадки} 9/6 600 м
[Cb cap Ac trans]
+15.2 +12.4 83 +16 +16 1004.2 986.3 +14.9 0.0
03 15.06 З 2 10 км слаб. ливневой дождь 10/10 720 м
[Cb cap]
+12.8 +10.9 88 +12 +12 1005.8 987.7 +12.6
06 15.06 С 3 50 км 10 баллов +14.9 +10.1 73 +14 +14 1008.5 990.7
09 15.06 С 3 50 км 7 баллов +16.9 +9.1 60 +17 +20 1008.4 990.7
12 15.06 С 2 50 км 8/3 1000 м
[Sc Ac trans Ci fib]
+17.2 +9.1 59 +18 +19 1006.5 988.7 +18.3 4
15 15.06 СВ 1 50 км 9 баллов +14.8 +8.5 66 +15 +15 1007.1 989.3
18 15.06 З 1 50 км 9 баллов +12.3 +8.8 79 +12 +12 1005.9 988.0
21 15.06 З 1 50 км 10 баллов +10.8 +8.2 84 +10 +10 1004.7 986.7
00 16.06 штиль 0 50 км {ливн. осадки} 10/6 600 м
[Cb cap Ac As]
+11.2 +9.3 88 +11 +11 1002.1 984.0 +10.1 1
03 16.06 Ю 1 20 км 9 баллов +15.7 +12.6 82 +16 +18 1002.9 985.3
06 16.06 ЮЗ 4 50 км 7 баллов +22.6 +12.8 54 +25 +29 комфорт 1001.2 984.0
09 16.06 ЮЗ 3 50 км 7 баллов +24.4 +12.0 46 +26 +29 жарко 999.8 982.7
12 16.06 В 1
{19}
50 км {гроза, ливн. осадки} 10/4 600 м
[Cb cap Ac As]
+17.7 +14.3 80 +19 +19 1002.6 984.9 +25.1 14
15 16.06 Ю 3 50 км 9 баллов +16.5 +8.2 58 +16 +16 1005.7 988.0
18 16.06 ЮЗ 4
{10}
50 км {ливн. осадки} 8/4 1000 м
[Sc Ac lent Ci fib]
+13.6 +5.4 58 +12 +12 1006.5 988.5

 

Местоположение метеостанции Крапивино (Кемеровская область, Россия): широта 55.00 долгота 86.82 высота над уровнем моря 151 м.

В архиве по умолчанию представлена погода в Крапивино за последнюю неделю. Архивные данные за месяц целиком и за предыдущие месяцы, начиная с января 2011 года, Вы можете получить, выбрав интересующий диапазон дат из раскрывающегося списка и нажав кнопку "Ввод!".


*Определитесь, кто Вы:
робот инопланетянин человек

Внимание! Время в таблицах - всемирное. Для получения местного времени необходимо прибавить поправку, которая равна 7 ч.

Смотрите также архив погоды в соседних городах и на ближайших метеорологических станциях:

Погода в Кемерово (Кемеровская область, Россия) (47 км)
Погода в Ленинск-Кузнецком (Кемеровская область, Россия) (51 км)
Погода в Центральном Руднике (Кемеровская область, Россия) (57 км)
Погода в Кемерово АМС (Кемеровская область, Россия) (59 км)
Погода в Белово (Кемеровская область, Россия) (68 км)
Погода в Промышленной (Кемеровская область, Россия) (77 км)
Погода в Топках (Кемеровская область, Россия) (83 км)
Погода в Барзасе (Кемеровская область, Россия) (85 км)
Погода в Красном (Кемеровская область, Россия) (101 км)
Погода в Киселевске (Кемеровская область, Россия) (108 км)

Пояснения к столбцам:

Ветер - указаны скорость ветра в м/с - средняя за 10 мин, порывы в срок и между сроками (в фигурных скобках) и направление, откуда дует ветер: С - северный, СВ - северо-восточный, В - восточный, ЮВ - юго-восточный, Ю - южный, ЮЗ - юго-западный, З - западный, СЗ - северо-западный.
Видимость - горизонтальная дальность видимости в метрах или километрах. При видимости от 1 до 10 км при отсутствии осадков обычно наблюдается дымка, при ухудшении видимости до 1 км и менее - туман. В сухую погоду видимость может ухудшаться дымом, пылью или мглою.
Явления - указаны атмосферные явления, наблюдавшиеся в срок или в последний час перед сроком; фигурными скобками обозначены явления, наблюдавшиеся между сроками (за 1-3 часа до срока); квадратными скобками обозначены град или гололедные отложения с указанием их диаметра в мм.
Облачность - указаны через наклонную черту общая и нижняя облачность в баллах и высота нижней границы облаков в метрах; квадратными скобками обозначены формы облаков: Ci - перистые, Cs - перисто-слоистые, Cc - перисто-кучевые, Ac - высококучевые, As - высокослоистые, Sc - слоисто-кучевые, Ns - слоисто-дождевые, Cu - кучевые, Cb - кучево-дождевые. Подробнее классификацию облаков см. в Атласе облаков (PDF).
T - Температура воздуха - температура, измеренная на высоте 2 м над землей.
Td - Температура точки росы - температура, при понижении до которой содержащийся в воздухе водяной пар достигнет насыщения.
f - Относительная влажность воздуха - влажноcть воздуха, измеренная на высоте 2 м над землей.
Te - Эффективная температура - температура, которую ощущает одетый по сезону человек в тени. Характеристика душности погоды. При расчете учитывается влияние влажности воздуха и скорости ветра на теплоощущения человека.
Tes - Эффективная температура на солнце - температура, которую ощущает человек, с поправкой на солнечный нагрев. Характеристика знойности погоды. Зависит от высоты солнца над горизонтом, облачности и скорости ветра. Ночью, в пасмурную погоду, а также при ветре 12 м/с и более поправка равна нулю.
P - Атмосферное давление - приведенное к уровню моря атмосферное давление.
Po - Атмосферное давление - измеренное на уровне метеостанции атмосферное давление.
Tmin - Минимальная температура - минимум температуры воздуха на высоте 2 м над землей.
Tmax - Максимальная температура - максимум температуры воздуха на высоте 2 м над землей.
R - Количество осадков - Количество выпавших осадков за период времени, мм. При наведении курсора мыши на число - период времени, за который выпало указанное количество осадков.
R24 - Количество осадков - Количество выпавших осадков за 24 часа, мм.
S - Снежный покров - Высота снежного покрова, см. При наведении курсора мыши на число - состояние снежного покрова и степень покрытия местности в баллах.